Torna al catalogo

STARLINK-5963

AttivoComunicazioniVLEO
NORAD 56780·PAYLOAD·🇺🇸 United States

Lanciato May 31, 2023 da Vandenberg Space Force Base

Loading…

Prossimi Passaggi (prossime 24 ore)

TLE

AggiornatoSource: CelesTrak SupGP

Epoca: Sep 14, 2026, 20:58 UTC

1 56780C 23078P   26257.87409722  .00039081  00000+0  32745-2 0  2577
2 56780  70.0012 227.2488 0003615 266.4394 100.5960 14.98317118    15

Traccia STARLINK-5963 in tempo reale con AllMySat

Download on the App Store